Regional Weather Roundup
Issued by NWS

Home | Current Version | Previous Version | Text Only | Print | Product List | Glossary Off
Versions: 1 2 3 4 5 6 7 8 9 10 11 12 13 14 15 16 17 18 19 20 21 22 23 24 25 26 27 28

000
ASUS45 KCYS 011010
RWRWY

WYOMING REGIONAL WEATHER ROUNDUP
NATIONAL WEATHER SERVICE CHEYENNE WY
400 AM MDT SUN MAY 01 2016

NOTE:  "FAIR" INDICATES FEW OR NO CLOUDS BELOW 12,000 FEET
WITH NO SIGNIFICANT WEATHER AND/OR OBSTRUCTIONS TO VISIBILITY.

WYZ001-011100-
YELLOWSTONE NATIONAL PARK

CITY           SKY/WX    TMP DP  RH WIND       PRES   REMARKS
LK YELLOWSTONE   N/A     29  20  69 CALM      30.29S
W YELLOWSTONE  NOT AVBL

$$
WYZ002>013-054>058-071-098>099-011100-
NORTHERN WYOMING

CITY           SKY/WX    TMP DP  RH WIND       PRES   REMARKS
JACKSON        FAIR      36  25  64 NE13      30.22S WCI  27
CODY           CLOUDY    37  30  75 CALM      30.30S
GREYBULL       CLOUDY    34  31  88 SE6       30.29R WCI  29
WORLAND        MOCLDY    36  34  92 S7        30.28S WCI  30
SHERIDAN       CLOUDY    38  35  89 CALM      30.32R
BUFFALO          N/A    N/A N/A N/A MISG      30.31S
GILLETTE       MOCLDY    27  25  92 SW3       30.30R
HULETT         FAIR      36  28  75 CALM      30.31R
NEWCASTLE      FAIR      32  27  80 N8        30.28S WCI  25

$$
WYZ014>020-022>026-101>103-011100-
CENTRAL WYOMING

CITY           SKY/WX    TMP DP  RH WIND       PRES   REMARKS
BIG PINEY      FAIR      25  22  88 W6        30.22S WCI  18
PINEDALE       FAIR      28  27  93 NW5       30.21F WCI  23
DUBOIS         NOT AVBL
LANDER         FAIR      34  29  82 W8        30.27S WCI  27
RIVERTON       FAIR      33  31  92 NW7       30.29S WCI  27
CASPER         MOCLDY    32  28  85 N8        30.28S WCI  25
DOUGLAS        MOCLDY    30  28  92 NW6       30.29R WCI  24

$$
WYZ021-027>030-104>119-011100-
SOUTHERN WYOMING

CITY           SKY/WX    TMP DP  RH WIND       PRES   REMARKS
EVANSTON       MOCLDY    32  24  72 E17       30.16R WCI  21
FORT BRIDGER   MOSUNNY   32  32 100 E16G25    30.21R WCI  21
ROCK SPRINGS   CLOUDY    33  27  78 E18       30.20S WCI  22
DIXON          FAIR      33  22  62 E12       30.18S WCI  25
RAWLINS        FAIR      29  25  85 NE22      30.19F WCI  15
SARATOGA       FAIR      30  23  74 NE12G18   30.22S WCI  21
LARAMIE        CLOUDY    26  22  84 NE10      30.21F WCI  16
CHEYENNE       CLOUDY    31  28  89 N15G25    30.21S WCI  20
TORRINGTON     CLOUDY    37  32  82 N5        30.25R WCI  33
PINE BLUFFS    CLOUDY    32  32 100 N17       30.22R WCI  21

$$




USA.gov is the U.S. government's official web portal to all federal, state and local government web resources and services.